QPF
0.00 0.00 0.00 0.00 0.00 0.00 0.00 0.00 0.00 0.00 0.00 0.00 0.00 0.00 0.00 0.00 0.00 0.00 0.00 0.00 0.00 0.03 0.01 0.00 0.00 0.00 0.00 0.00 0.00 0.00 0.00 0.00 0.00 0.00 0.00 0.00 0.00 0.00 0.00 0.00 0.00 0.00 0.00
0.00 0.00 0.00 0.00 0.00 0.00 0.00 0.00 0.00 0.00 0.00 0.00 0.00 0.00 0.00 0.00 0.00 0.00 0.00 0.00 0.00 0.01 0.01 0.00 0.00 0.01 0.00 0.01 0.01 0.00 0.00 0.01 0.00 0.00 0.00 0.00 0.00 0.00 0.00 0.00 0.00 0.00 0.00
0.00 0.00 0.00 0.00 0.00 0.00 0.00 0.00 0.00 0.00 0.00 0.00 0.00 0.00 0.00 0.00 0.00 0.00 0.00 0.00 0.00 0.00 0.00 0.00 0.00 0.01 0.00 0.02 0.04 0.01 0.01 0.03 0.02 0.01 0.00 0.00 0.00 0.00 0.00 0.00 0.00 0.00 0.00
0.00 0.00 0.00 0.00 0.00 0.00 0.00 0.00 0.00 0.00 0.00 0.00 0.00 0.00 0.00 0.00 0.00 0.00 0.00 0.00 0.00 0.00 0.01 0.00 0.01 0.02 0.02 0.05 0.05 0.05 0.06 0.05 0.06 0.04 0.02 0.01 0.00 0.00 0.00 0.00 0.00 0.00 0.00
0.00 0.00 0.00 0.00 0.00 0.00 0.00 0.00 0.00 0.00 0.00 0.00 0.00 0.00 0.00 0.00 0.00 0.00 0.00 0.00 0.00 0.03 0.05 0.04 0.02 0.05 0.03 0.04 0.06 0.04 0.07 0.05 0.05 0.05 0.01 0.01 0.00 0.00 0.01 0.00 0.00 0.00 0.00
0.00 0.00 0.00 0.00 0.00 0.00 0.00 0.00 0.00 0.00 0.00 0.00 0.00 0.01 0.03 0.00 0.00 0.00 0.00 0.01 0.05 0.08 0.04 0.04 0.04 0.03 0.01 0.02 0.05 0.05 0.08 0.08 0.05 0.04 0.03 0.01 0.00 0.01 0.01 0.00 0.00 0.00 0.00
0.00 0.00 0.00 0.00 0.00 0.00 0.00 0.00 0.00 0.00 0.00 0.00 0.00 0.02 0.02 0.04 0.10 0.05 0.04 0.05 0.08 0.04 0.05 0.04 0.02 0.01 0.03 0.02 0.04 0.03 0.01 0.02 0.04 0.05 0.04 0.01 0.01 0.01 0.01 0.00 0.00 0.00 0.00
0.00 0.00 0.00 0.00 0.00 0.00 0.00 0.00 0.00 0.00 0.00 0.00 0.00 0.03 0.06 0.05 0.03 0.02 0.03 0.01 0.02 0.02 0.01 0.01 0.01 0.00 0.01 0.00 0.00 0.00 0.00 0.00 0.04 0.07 0.04 0.03 0.04 0.04 0.03 0.01 0.00 0.00 0.00
0.00 0.01 0.02 0.03 0.01 0.01 0.01 0.01 0.02 0.04 0.02 0.03 0.00 0.00 0.01 0.01 0.00 0.02 0.03 0.01 0.00 0.00 0.00 0.00 0.00 0.00 0.00 0.00 0.00 0.00 0.00 0.00 0.01 0.01 0.02 0.07 0.13 0.14 0.12 0.05 0.01 0.00 0.00
0.01 0.04 0.09 0.12 0.13 0.11 0.13 0.15 0.14 0.07 0.05 0.06 0.03 0.03 0.03 0.00 0.01 0.01 0.02 0.02 0.01 0.03 0.01 0.01 0.01 0.00 0.00 0.00 0.00 0.00 0.00 0.00 0.00 0.00 0.00 0.01 0.01 0.03 0.07 0.06 0.05 0.03 0.00
0.01 0.04 0.08 0.14 0.12 0.10 0.07 0.10 0.13 0.15 0.13 0.11 0.09 0.04 0.01 0.01 0.03 0.01 0.00 0.00 0.02 0.05 0.02 0.01 0.00 0.00 0.00 0.00 0.00 0.00 0.00 0.00 0.00 0.00 0.00 0.01 0.01 0.02 0.07 0.13 0.14 0.15 0.15
0.03 0.06 0.06 0.07 0.06 0.06 0.04 0.05 0.06 0.08 0.07 0.05 0.04 0.02 0.01 0.01 0.00 0.00 0.00 0.00 0.02 0.05 0.03 0.00 0.00 0.00 0.00 0.00 0.00 0.00 0.00 0.00 0.00 0.00 0.00 0.00 0.02 0.06 0.14 0.16 0.19 0.16 0.12
0.01 0.02 0.02 0.02 0.01 0.01 0.02 0.01 0.01 0.01 0.00 0.00 0.00 0.00 0.01 0.00 0.00 0.00 0.00 0.00 0.00 0.01 0.01 0.00 0.00 0.00 0.00 0.00 0.00 0.00 0.00 0.00 0.00 0.00 0.00 0.01 0.01 0.02 0.05 0.10 0.16 0.20 0.25
0.00 0.00 0.01 0.01 0.01 0.02 0.01 0.01 0.03 0.05 0.02 0.01 0.02 0.02 0.02 0.00 0.00 0.00 0.00 0.00 0.00 0.00 0.00 0.00 0.00 0.00 0.00 0.00 0.00 0.00 0.00 0.00 0.00 0.00 0.00 0.00 0.00 0.01 0.02 0.05 0.09 0.09 0.08
0.08 0.06 0.06 0.07 0.09 0.08 0.13 0.16 0.15 0.09 0.14 0.15 0.09 0.07 0.04 0.01 0.00 0.00 0.00 0.00 0.00 0.00 0.00 0.00 0.00 0.00 0.00 0.00 0.00 0.00 0.00 0.00 0.00 0.00 0.00 0.00 0.00 0.00 0.00 0.00 0.00 0.01 0.00
0.07 0.13 0.10 0.13 0.18 0.23 0.21 0.13 0.11 0.12 0.10 0.13 0.15 0.08 0.04 0.01 0.01 0.00 0.00 0.00 0.00 0.00 0.00 0.00 0.00 0.00 0.00 0.00 0.00 0.00 0.00 0.00 0.00 0.00 0.00 0.00 0.00 0.00 0.00 0.00 0.00 0.00 0.00
0.01 0.02 0.03 0.02 0.04 0.04 0.04 0.02 0.02 0.01 0.01 0.00 0.00 0.01 0.01 0.03 0.01 0.00 0.00 0.00 0.00 0.00 0.00 0.00 0.00 0.00 0.00 0.00 0.00 0.00 0.00 0.00 0.00 0.00 0.00 0.00 0.00 0.00 0.00 0.00 0.00 0.00 0.00
0.00 0.00 0.01 0.02 0.02 0.03 0.01 0.00 0.00 0.00 0.00 0.00 0.00 0.00 0.00 0.00 0.00 0.00 0.00 0.00 0.00 0.00 0.00 0.00 0.00 0.00 0.00 0.00 0.00 0.00 0.00 0.00 0.00 0.00 0.00 0.00 0.00 0.00 0.00 0.00 0.00 0.00 0.00
0.00 0.00 0.00 0.00 0.00 0.00 0.00 0.01 0.01 0.00 0.00 0.00 0.00 0.00 0.00 0.00 0.00 0.00 0.00 0.00 0.00 0.00 0.00 0.00 0.00 0.00 0.00 0.00 0.00 0.00 0.00 0.00 0.00 0.00 0.00 0.00 0.00 0.00 0.00 0.00 0.00 0.00 0.00
0.00 0.00 0.00 0.00 0.00 0.00 0.00 0.00 0.00 0.00 0.00 0.00 0.00 0.00 0.00 0.00 0.00 0.00 0.00 0.00 0.00 0.00 0.00 0.00 0.00 0.00 0.00 0.00 0.00 0.00 0.00 0.00 0.00 0.00 0.00 0.00 0.00 0.00 0.00 0.00 0.00 0.00 0.00
0.00 0.00 0.00 0.00 0.00 0.00 0.00 0.00 0.00 0.00 0.00 0.00 0.00 0.00 0.00 0.00 0.00 0.00 0.00 0.00 0.00 0.00 0.00 0.00 0.00 0.00 0.00 0.00 0.00 0.00 0.00 0.00 0.00 0.00 0.00 0.00 0.00 0.00 0.00 0.00 0.00 0.00 0.00
0.00 0.00 0.00 0.00 0.00 0.00 0.00 0.00 0.00 0.00 0.00 0.00 0.00 0.00 0.00 0.00 0.00 0.00 0.00 0.00 0.00 0.00 0.00 0.00 0.00 0.00 0.00 0.00 0.00 0.00 0.00 0.00 0.00 0.00 0.00 0.00 0.00 0.00 0.00 0.00 0.00 0.00 0.00
0.00 0.00 0.00 0.00 0.00 0.00 0.00 0.00 0.00 0.00 0.00 0.00 0.00 0.00 0.00 0.00 0.00 0.00 0.00 0.00 0.00 0.00 0.00 0.00 0.00 0.00 0.00 0.00 0.00 0.00 0.00 0.00 0.00 0.00 0.00 0.00 0.00 0.00 0.00 0.00 0.00 0.00 0.00
0.00 0.00 0.00 0.00 0.00 0.00 0.00 0.00 0.00 0.00 0.00 0.00 0.00 0.00 0.00 0.00 0.00 0.00 0.00 0.00 0.00 0.00 0.00 0.00 0.00 0.00 0.00 0.00 0.00 0.00 0.00 0.00 0.00 0.00 0.00 0.00 0.00 0.00 0.00 0.00 0.00 0.00 0.00
0.00 0.00 0.00 0.00 0.00 0.00 0.00 0.00 0.00 0.00 0.00 0.00 0.00 0.00 0.00 0.00 0.00 0.00 0.00 0.00 0.00 0.00 0.00 0.00 0.00 0.00 0.00 0.00 0.01 0.00 0.00 0.00 0.00 0.00 0.00 0.00 0.00 0.00 0.00 0.00 0.00 0.00 0.00
0.00 0.00 0.00 0.00 0.00 0.00 0.00 0.00 0.00 0.00 0.00 0.00 0.00 0.00 0.00 0.00 0.00 0.00 0.00 0.00 0.00 0.00 0.00 0.00 0.00 0.00 0.00 0.00 0.00 0.01 0.02 0.01 0.00 0.00 0.00 0.00 0.00 0.00 0.00 0.00 0.00 0.00 0.00
MSLP
1011.26 1012.05 1012.82 1013.50 1014.09 1014.61 1014.89 1015.22 1015.56 1015.92 1016.27 1016.60 1016.86 1017.10 1017.34 1017.59 1017.73 1018.00 1018.19 1018.40 1018.58 1018.57 1018.64 1018.71 1018.73 1018.85 1018.76 1018.70 1018.83 1018.86 1018.69 1018.67 1018.03 1016.95 1016.57 1016.19 1016.14 1015.87 1015.38 1015.00 1014.49 1014.02 1013.31
1009.97 1010.85 1011.60 1012.36 1013.11 1013.60 1014.01 1014.37 1014.81 1015.16 1015.54 1015.83 1016.17 1016.49 1016.64 1016.81 1017.02 1017.33 1017.46 1017.52 1017.74 1017.82 1017.75 1017.89 1017.93 1018.05 1018.11 1018.24 1018.38 1018.29 1018.03 1018.07 1017.91 1017.05 1016.43 1015.99 1015.68 1015.47 1015.22 1014.85 1014.04 1013.58 1013.19
1009.11 1009.98 1010.73 1011.30 1011.99 1012.47 1013.01 1013.60 1014.10 1014.51 1014.79 1015.14 1015.55 1015.75 1015.89 1016.03 1016.23 1016.47 1016.70 1016.83 1016.72 1017.01 1017.01 1017.21 1017.28 1017.51 1017.56 1017.63 1017.78 1017.65 1017.34 1017.44 1017.41 1017.19 1016.27 1015.75 1015.35 1015.03 1014.63 1014.33 1013.72 1013.34 1012.63
1008.44 1009.13 1009.69 1010.20 1010.69 1011.28 1011.98 1012.67 1013.18 1013.68 1014.07 1014.43 1014.73 1014.89 1015.08 1015.29 1015.44 1015.66 1015.95 1016.15 1016.26 1016.30 1016.44 1016.60 1016.66 1016.97 1017.08 1017.12 1017.16 1017.20 1017.10 1016.89 1016.73 1016.57 1016.12 1015.67 1014.96 1014.44 1014.34 1014.10 1013.21 1012.77 1012.14
1008.23 1008.57 1008.72 1009.10 1009.89 1010.73 1011.22 1011.73 1012.36 1012.91 1013.25 1013.58 1013.90 1014.10 1014.26 1014.48 1014.60 1014.93 1015.24 1015.40 1015.53 1015.64 1015.87 1016.01 1016.14 1016.36 1016.44 1016.49 1016.70 1016.45 1016.43 1016.42 1016.21 1015.98 1015.46 1014.97 1014.43 1014.05 1013.84 1013.37 1013.26 1012.73 1011.84
1007.68 1008.03 1008.41 1008.96 1009.43 1009.71 1010.30 1010.87 1011.61 1012.05 1012.42 1012.77 1012.99 1013.25 1013.54 1013.71 1013.78 1014.23 1014.57 1014.69 1014.80 1015.02 1015.17 1015.31 1015.46 1015.77 1015.87 1016.03 1016.06 1016.04 1015.92 1015.80 1015.57 1015.20 1014.62 1014.33 1013.85 1013.73 1013.44 1013.11 1012.74 1012.47 1011.32
1007.07 1007.83 1008.47 1008.64 1009.00 1009.39 1009.79 1010.48 1010.73 1011.13 1011.61 1011.83 1012.08 1012.56 1012.87 1013.23 1013.57 1014.02 1014.29 1014.45 1014.29 1014.18 1014.36 1014.59 1014.72 1014.75 1015.22 1015.32 1015.32 1015.41 1015.17 1015.03 1014.97 1014.75 1014.45 1013.91 1013.49 1013.25 1013.20 1012.93 1012.41 1012.04 1011.57
1006.65 1007.37 1008.05 1008.51 1008.62 1009.16 1009.59 1009.85 1010.25 1010.64 1010.85 1011.09 1011.45 1011.96 1012.40 1012.68 1013.14 1013.58 1013.85 1013.97 1013.73 1013.64 1013.63 1013.86 1014.35 1014.63 1015.00 1015.32 1015.19 1015.06 1014.54 1014.12 1013.82 1013.92 1014.03 1013.69 1013.45 1013.35 1013.20 1012.94 1012.60 1012.10 1011.39
1006.02 1006.97 1007.77 1008.03 1008.13 1008.50 1009.07 1009.39 1009.50 1009.96 1010.14 1010.53 1011.08 1011.54 1012.02 1012.34 1012.82 1013.16 1013.53 1013.60 1013.39 1013.29 1013.36 1013.52 1013.75 1014.20 1014.57 1015.02 1015.06 1014.67 1014.22 1013.64 1013.01 1013.40 1013.53 1013.47 1013.41 1013.22 1013.34 1013.32 1012.64 1012.16 1011.24
1006.58 1006.52 1007.16 1007.38 1007.62 1008.01 1008.65 1009.14 1009.55 1009.72 1010.21 1010.61 1011.09 1011.47 1011.56 1012.02 1012.33 1012.29 1012.55 1012.50 1012.23 1012.17 1012.65 1012.90 1013.49 1013.84 1014.35 1014.85 1014.88 1014.63 1014.10 1013.40 1013.34 1012.91 1012.58 1012.43 1012.28 1011.93 1012.18 1012.38 1012.26 1011.95 1011.31
1007.37 1007.44 1007.55 1007.32 1007.97 1007.34 1008.90 1008.97 1009.39 1010.03 1010.41 1010.93 1011.40 1011.84 1011.82 1011.98 1012.43 1012.70 1012.49 1012.46 1012.31 1012.47 1012.68 1012.88 1013.05 1013.72 1014.18 1014.41 1014.45 1014.39 1013.87 1013.79 1013.34 1013.07 1012.91 1012.67 1012.33 1011.67 1011.37 1011.41 1011.50 1011.56 1011.21
1006.81 1007.31 1007.43 1008.35 1008.81 1008.75 1009.00 1009.82 1008.93 1010.08 1010.50 1010.64 1011.98 1012.04 1012.40 1012.79 1013.78 1013.79 1013.24 1013.44 1013.12 1012.72 1013.03 1012.89 1013.10 1013.65 1013.95 1013.94 1014.10 1014.02 1013.86 1013.85 1013.54 1013.32 1012.72 1012.44 1012.33 1012.00 1011.79 1011.39 1011.13 1011.01 1011.02
1007.99 1007.79 1008.36 1008.73 1009.30 1009.14 1009.15 1009.29 1010.25 1010.22 1010.24 1010.23 1010.94 1011.48 1012.32 1013.02 1013.49 1013.04 1012.91 1013.09 1013.24 1012.57 1012.98 1013.01 1013.18 1013.41 1013.20 1013.22 1013.24 1013.27 1013.45 1013.24 1013.20 1013.20 1012.93 1012.51 1012.39 1012.41 1012.00 1011.47 1011.07 1010.97 1010.82
1008.67 1008.79 1008.41 1008.51 1008.35 1008.84 1009.63 1010.34 1010.80 1009.87 1010.43 1010.16 1010.91 1011.95 1012.34 1012.76 1012.96 1012.98 1013.05 1013.23 1013.32 1012.82 1012.21 1012.75 1013.06 1012.98 1012.92 1013.05 1013.19 1013.62 1013.79 1013.72 1013.29 1013.17 1013.25 1013.04 1012.70 1012.37 1012.32 1011.96 1011.31 1010.92 1010.80
1008.73 1009.26 1009.09 1008.82 1009.13 1009.25 1010.38 1010.77 1010.85 1010.17 1010.29 1010.77 1011.47 1011.66 1012.01 1012.37 1012.01 1012.24 1012.59 1012.79 1012.73 1012.42 1012.22 1012.56 1012.24 1012.58 1013.09 1013.19 1013.60 1013.74 1013.66 1013.66 1013.37 1013.55 1013.36 1013.11 1012.88 1012.69 1012.25 1012.19 1011.69 1011.24 1011.03
1009.13 1009.46 1009.71 1009.58 1009.79 1010.06 1010.82 1011.01 1010.89 1010.79 1010.72 1011.25 1010.95 1011.38 1012.25 1012.22 1012.18 1012.26 1012.35 1012.63 1012.72 1012.50 1012.04 1012.05 1012.18 1012.47 1012.71 1013.09 1013.33 1013.53 1013.53 1013.46 1013.16 1013.07 1012.91 1012.96 1012.78 1012.90 1012.81 1012.50 1012.29 1011.88 1011.55
1010.13 1010.26 1010.74 1010.91 1010.64 1010.61 1011.79 1011.23 1011.10 1011.27 1011.12 1011.48 1011.55 1011.81 1012.24 1012.76 1012.87 1012.39 1012.38 1012.35 1012.36 1012.22 1011.62 1011.67 1011.87 1012.31 1012.50 1013.08 1013.32 1013.68 1013.47 1013.44 1013.56 1013.01 1012.77 1012.73 1012.47 1012.68 1012.68 1012.49 1012.33 1012.16 1011.73
1011.09 1011.36 1011.52 1011.38 1011.19 1011.25 1011.96 1011.77 1011.27 1011.71 1012.12 1011.58 1011.58 1012.46 1013.12 1012.78 1012.38 1012.53 1012.36 1012.20 1012.16 1012.18 1011.96 1011.76 1011.99 1012.28 1012.42 1012.63 1012.77 1013.00 1012.97 1012.93 1012.97 1012.99 1012.64 1012.60 1012.52 1012.65 1012.73 1012.57 1012.28 1012.03 1011.73
1012.04 1012.06 1011.86 1012.02 1012.19 1011.99 1012.38 1011.92 1011.77 1011.50 1011.70 1011.64 1011.46 1012.18 1012.85 1012.50 1012.27 1012.08 1012.40 1012.35 1012.03 1011.76 1011.66 1011.83 1012.13 1012.27 1012.39 1012.53 1012.59 1012.87 1013.02 1013.03 1013.11 1012.69 1012.60 1012.53 1012.60 1012.46 1012.90 1012.81 1012.25 1012.23 1011.91
1012.88 1012.90 1012.59 1012.69 1012.44 1012.57 1012.70 1012.23 1012.03 1011.89 1012.03 1011.87 1011.94 1012.24 1011.87 1011.43 1011.57 1011.43 1011.39 1011.54 1011.54 1011.22 1011.19 1011.47 1011.68 1011.90 1012.14 1012.26 1012.25 1012.38 1012.48 1012.70 1012.61 1012.78 1013.06 1013.34 1013.13 1012.74 1012.53 1012.43 1012.01 1011.64 1011.59
1013.90 1013.56 1013.75 1013.59 1013.44 1013.14 1012.94 1012.89 1012.97 1013.01 1012.89 1012.67 1012.45 1012.66 1012.79 1012.39 1011.32 1010.78 1010.58 1010.64 1010.86 1010.62 1010.73 1010.97 1011.33 1011.52 1011.66 1011.90 1011.83 1011.84 1011.99 1012.16 1012.50 1012.61 1012.74 1012.92 1012.87 1012.76 1012.64 1012.24 1011.92 1011.84 1011.68
1014.41 1014.40 1014.32 1014.01 1014.00 1013.85 1013.73 1013.49 1013.33 1013.18 1012.93 1012.73 1012.65 1012.42 1012.40 1011.59 1011.51 1011.27 1010.85 1010.68 1010.58 1010.66 1010.71 1010.77 1010.71 1010.85 1011.02 1011.18 1011.58 1011.69 1011.74 1012.03 1012.17 1012.44 1012.36 1012.49 1012.67 1012.53 1012.34 1011.99 1011.87 1011.79 1011.26
1014.67 1014.50 1014.31 1014.13 1014.10 1014.05 1013.67 1013.41 1013.26 1013.09 1012.91 1012.69 1012.52 1012.35 1012.08 1011.72 1011.43 1011.36 1011.10 1010.64 1010.64 1010.70 1010.58 1010.60 1010.57 1010.37 1010.57 1010.81 1011.07 1011.25 1011.33 1011.53 1011.72 1012.01 1012.25 1012.32 1012.29 1012.35 1011.95 1011.74 1011.80 1011.75 1011.61
1014.93 1014.61 1014.40 1014.11 1013.90 1013.92 1013.63 1013.48 1013.39 1013.15 1012.98 1012.54 1012.27 1012.23 1012.12 1011.99 1011.73 1011.33 1011.24 1010.89 1010.58 1010.50 1010.56 1010.38 1010.28 1010.12 1010.06 1010.27 1010.33 1010.61 1011.00 1011.40 1011.76 1011.73 1011.84 1012.05 1011.99 1012.26 1012.00 1011.63 1011.42 1011.33 1011.13
1014.58 1014.60 1014.38 1014.18 1013.95 1013.77 1013.70 1013.50 1013.19 1012.94 1012.71 1012.42 1012.19 1012.04 1011.79 1011.64 1011.49 1011.27 1010.95 1011.00 1010.89 1010.62 1010.42 1010.12 1010.10 1009.91 1010.03 1009.91 1009.83 1009.88 1010.16 1011.14 1011.51 1011.64 1011.81 1011.72 1011.62 1011.87 1011.68 1011.46 1011.35 1011.33 1011.13
1014.18 1014.09 1013.92 1013.90 1013.77 1013.73 1013.57 1013.31 1013.17 1012.94 1012.67 1012.52 1012.14 1011.75 1011.63 1011.51 1011.30 1011.14 1010.75 1010.72 1010.60 1010.51 1010.25 1009.84 1009.47 1009.60 1009.56 1009.74 1009.81 1009.60 1010.14 1010.65 1010.69 1011.41 1011.17 1011.07 1010.92 1010.80 1011.02 1011.20 1011.11 1010.93 1010.69
Thickness
5811 5807 5802 5799 5797 5794 5795 5794 5793 5791 5790 5789 5788 5786 5785 5783 5783 5782 5781 5780 5779 5781 5783 5783 5782 5782 5782 5783 5781 5779 5776 5773 5771 5787 5792 5795 5790 5788 5788 5786 5787 5789 5793
5815 5811 5807 5802 5798 5796 5796 5796 5794 5793 5791 5790 5788 5787 5787 5786 5785 5783 5782 5784 5782 5781 5783 5784 5783 5784 5783 5782 5780 5778 5778 5776 5772 5774 5784 5786 5787 5787 5785 5784 5787 5786 5788
5814 5809 5805 5803 5800 5799 5796 5794 5792 5791 5791 5789 5787 5786 5787 5788 5787 5787 5785 5783 5786 5783 5783 5783 5783 5782 5779 5780 5778 5777 5779 5777 5775 5772 5778 5784 5785 5785 5784 5783 5787 5786 5788
5811 5807 5805 5804 5803 5801 5798 5793 5791 5790 5787 5787 5787 5788 5787 5787 5789 5788 5786 5784 5783 5783 5782 5781 5781 5779 5777 5777 5776 5775 5774 5773 5774 5772 5774 5774 5779 5782 5782 5778 5782 5785 5788
5803 5802 5805 5806 5802 5797 5796 5794 5790 5787 5787 5787 5786 5786 5787 5787 5788 5786 5784 5783 5781 5780 5779 5779 5779 5777 5776 5776 5775 5776 5774 5772 5771 5768 5769 5772 5774 5773 5772 5780 5776 5779 5786
5798 5799 5799 5797 5795 5795 5793 5791 5785 5784 5783 5782 5784 5784 5782 5785 5787 5783 5781 5780 5780 5778 5776 5777 5778 5774 5774 5771 5771 5772 5772 5770 5769 5768 5770 5767 5772 5770 5772 5772 5772 5770 5775
5790 5789 5787 5790 5789 5789 5789 5783 5783 5781 5780 5780 5782 5781 5780 5781 5778 5775 5774 5775 5777 5778 5777 5774 5774 5775 5769 5770 5771 5769 5769 5767 5766 5767 5766 5767 5766 5768 5767 5765 5767 5766 5769
5782 5782 5779 5778 5782 5780 5779 5780 5778 5775 5775 5776 5776 5776 5775 5777 5773 5770 5768 5771 5773 5774 5775 5772 5765 5764 5763 5760 5763 5763 5766 5768 5769 5767 5765 5766 5766 5765 5762 5762 5762 5763 5770
5776 5775 5769 5772 5772 5773 5772 5773 5776 5773 5773 5773 5772 5770 5768 5770 5768 5766 5762 5763 5765 5765 5766 5765 5765 5762 5758 5752 5754 5756 5759 5762 5766 5763 5761 5760 5757 5756 5751 5749 5748 5752 5757
5762 5763 5762 5764 5769 5768 5767 5766 5765 5767 5764 5763 5762 5761 5764 5764 5763 5765 5762 5764 5765 5766 5762 5762 5758 5759 5752 5746 5746 5748 5749 5756 5756 5757 5758 5759 5756 5756 5753 5748 5747 5744 5749
5743 5747 5747 5753 5756 5764 5753 5759 5756 5751 5750 5749 5747 5744 5748 5751 5748 5744 5750 5754 5754 5755 5751 5749 5753 5747 5743 5735 5737 5740 5747 5748 5750 5750 5749 5746 5747 5752 5751 5747 5748 5744 5745
5741 5738 5741 5735 5740 5741 5745 5740 5734 5738 5736 5735 5725 5728 5729 5729 5721 5725 5734 5734 5739 5741 5733 5734 5741 5742 5737 5736 5733 5735 5738 5738 5741 5740 5741 5741 5739 5740 5740 5741 5742 5743 5742
5720 5722 5720 5721 5724 5728 5729 5718 5712 5723 5726 5727 5723 5717 5718 5716 5715 5721 5725 5727 5728 5738 5730 5730 5725 5731 5734 5735 5734 5737 5736 5739 5737 5734 5733 5734 5733 5731 5732 5734 5738 5738 5739
5703 5704 5710 5712 5715 5713 5709 5705 5703 5714 5712 5719 5715 5704 5706 5708 5708 5716 5718 5713 5716 5727 5724 5725 5722 5723 5726 5728 5727 5725 5724 5724 5728 5727 5722 5723 5726 5726 5723 5726 5731 5734 5733
5689 5689 5696 5700 5700 5704 5693 5690 5695 5700 5703 5702 5697 5698 5697 5698 5715 5715 5712 5712 5714 5718 5720 5718 5722 5719 5715 5717 5713 5713 5714 5713 5715 5713 5712 5714 5715 5716 5719 5718 5721 5723 5723
5674 5678 5680 5684 5685 5687 5679 5679 5679 5680 5681 5682 5690 5693 5690 5694 5698 5701 5704 5700 5700 5706 5716 5715 5714 5712 5711 5707 5705 5703 5703 5703 5707 5707 5707 5706 5708 5704 5704 5708 5709 5710 5711
5654 5661 5661 5661 5668 5672 5662 5667 5671 5672 5673 5671 5673 5675 5676 5679 5678 5686 5690 5692 5693 5697 5709 5707 5704 5701 5701 5695 5693 5688 5690 5692 5691 5696 5696 5697 5700 5698 5697 5697 5698 5698 5700
5640 5640 5640 5645 5652 5655 5650 5653 5659 5659 5656 5666 5667 5664 5658 5663 5669 5670 5674 5679 5686 5683 5686 5687 5685 5683 5684 5683 5682 5679 5680 5681 5680 5678 5682 5683 5684 5682 5680 5682 5684 5685 5688
5625 5630 5636 5634 5632 5636 5638 5642 5645 5649 5651 5652 5657 5655 5652 5655 5659 5660 5657 5664 5667 5670 5673 5672 5668 5667 5667 5667 5667 5665 5664 5663 5663 5667 5667 5668 5667 5667 5662 5664 5670 5666 5668
5611 5615 5622 5622 5625 5627 5627 5633 5636 5639 5640 5645 5646 5646 5651 5656 5659 5660 5659 5659 5660 5663 5663 5661 5660 5658 5657 5658 5659 5657 5656 5653 5654 5652 5650 5647 5649 5653 5654 5654 5658 5659 5659
5595 5603 5602 5606 5609 5614 5615 5616 5617 5619 5622 5626 5630 5629 5625 5635 5646 5653 5654 5652 5651 5654 5653 5652 5649 5647 5646 5644 5645 5644 5643 5641 5638 5637 5636 5634 5634 5634 5635 5638 5641 5642 5641
5584 5585 5588 5593 5594 5597 5599 5603 5605 5607 5609 5611 5614 5618 5616 5626 5629 5630 5634 5636 5638 5638 5637 5638 5638 5636 5634 5632 5628 5627 5626 5623 5622 5619 5621 5620 5617 5617 5617 5620 5620 5619 5624
5575 5576 5578 5581 5583 5583 5590 5593 5595 5597 5598 5600 5601 5603 5606 5609 5612 5613 5615 5620 5620 5620 5621 5620 5620 5620 5618 5615 5612 5610 5608 5606 5605 5602 5599 5598 5598 5597 5599 5599 5597 5595 5596
5565 5568 5570 5573 5575 5573 5576 5577 5579 5579 5582 5587 5589 5589 5589 5590 5592 5596 5597 5600 5602 5602 5601 5602 5602 5602 5602 5598 5597 5594 5591 5588 5583 5582 5581 5579 5580 5575 5576 5578 5579 5579 5581
5559 5558 5560 5562 5564 5564 5563 5563 5565 5568 5569 5571 5572 5574 5577 5578 5578 5579 5581 5580 5581 5583 5585 5586 5583 5583 5582 5582 5582 5581 5577 5569 5565 5562 5561 5561 5563 5560 5561 5561 5560 5560 5561
5551 5551 5552 5551 5551 5550 5551 5552 5551 5551 5552 5552 5555 5559 5558 5558 5560 5560 5564 5563 5563 5563 5564 5567 5569 5567 5566 5564 5561 5561 5558 5553 5551 5546 5544 5544 5545 5547 5545 5540 5537 5541 5543